Location: Vigo di Fassa
(46.4167°N, 11.6667°E)
Time: 16:42:27
(UTC+00:00)

Okean 3 - Pass Details

Date: 03 March 2021
Orbit: 577 x 600 km, 82.5° (Epoch: 15 April)

Event Time Altitude Azimuth Distance (km) Brightness Sun altitude
Rises 18:36:12 0° 357° (N) 2,832 7.1 -16.9°
Reaches altitude 10° 18:38:31 10° 5° (N) 1,930 6.1 -17.3°
Maximum altitude 18:42:33 40° 76° (ENE) 878 3.9 -18.0°
Enters shadow 18:42:57 39° 91° (E) 894 3.9 -18.1°
